EW4441 Weather Reports


time (UTC)temp
C
wind
direction
speed
KPH
gust
KPH
rain 1hr
cm
rain 24hr
cm
rain mn
cm
humidity
%
barometer
mb
20260504193007 34 96 0.0 1.6 0.00 0.00 0.00 100 1013.5
20260504190003 33 108 0.0 3.2 0.00 0.00 0.00 100 1014.0
20260504184503 34 110 0.0 4.8 0.00 0.00 0.00 100 1014.2
20260504183002 34 98 0.0 3.2 0.00 0.00 0.00 100 1014.3
20260504174608 34 58 0.0 3.2 0.00 0.00 0.00 100 1014.7
20260504173100 33 321 0.0 6.4 0.00 0.00 0.00 100 1014.8
20260504171658 33 121 0.0 4.8 0.00 0.00 0.00 100 1014.9
20260504081525 24 123 0.0 0.0 0.00 0.00 0.00 100 1013.1
20260504050012 26 119 0.0 0.0 0.00 0.00 0.00 100 1015.3
20260504044515 26 119 0.0 0.0 0.00 0.00 0.00 100 1015.5
20260504043012 26 119 0.0 0.0 0.00 0.00 0.00 100 1015.4
20260504041510 26 119 0.0 0.0 0.00 0.00 0.00 100 1015.7
20260504040011 26 119 0.0 0.0 0.00 0.00 0.00 100 1015.7
20260504034509 26 119 0.0 0.0 0.00 0.00 0.00 100 1015.9
20260504031506 26 118 0.0 0.0 0.00 0.00 0.00 100 1015.7
20260504030006 26 119 0.0 0.0 0.00 0.00 0.00 100 1015.7
20260504024507 26 119 0.0 0.0 0.00 0.00 0.00 100 1015.6
20260504023004 27 119 0.0 0.0 0.00 0.00 0.00 100 1015.6
20260504021504 27 119 0.0 0.0 0.00 0.00 0.00 100 1015.5
20260504020004 27 118 0.0 0.0 0.00 0.00 0.00 100 1015.2
20260504014504 27 119 0.0 0.0 0.00 0.00 0.00 100 1015.0
20260504013011 27 118 0.0 0.0 0.00 0.00 0.00 100 1015.0
20260504011505 27 119 0.0 0.0 0.00 0.00 0.00 100 1014.9
20260504010005 27 119 0.0 0.0 0.00 0.00 0.00 100 1014.7
20260504004506 28 117 0.0 0.0 0.00 0.00 0.00 100 1014.4
20260504003003 28 118 0.0 0.0 0.00 0.00 0.00 100 1014.3
20260504001502 28 115 0.0 0.0 0.00 0.00 0.00 100 1014.2
20260504000001 28 115 0.0 0.0 0.00 0.00 0.00 100 1014.1
20260503234600 28 117 0.0 0.0 0.00 0.00 0.00 100 1014.1
20260503233103 28 106 0.0 0.0 0.00 0.00 0.00 100 1013.5
20260503231559 28 117 0.0 0.0 0.00 0.00 0.00 100 1013.4
20260503230058 29 113 0.0 0.0 0.00 0.00 0.00 100 1013.3
20260503224600 30 110 0.0 0.0 0.00 0.00 0.00 100 1013.4
20260503223058 30 111 0.0 0.0 0.00 0.00 0.00 100 1013.4
20260503221601 31 110 0.0 0.0 0.00 0.00 0.00 100 1013.4
20260503220104 31 115 0.0 0.0 0.00 0.00 0.00 100 1013.3
20260503214558 32 95 0.0 0.0 0.00 0.00 0.00 100 1013.4
20260503213055 33 318 0.0 0.0 0.00 0.00 0.00 100 1013.5
20260503211553 33 82 0.0 0.0 0.00 0.00 0.00 100 1013.5
20260503210057 33 103 0.0 0.0 0.00 0.00 0.00 100 1013.4
20260503204603 33 117 0.0 0.0 0.00 0.00 0.00 100 1013.7
20260503203059 33 104 0.0 0.0 0.00 0.00 0.00 100 1013.6
20260503201652 34 115 0.0 0.0 0.00 0.00 0.00 100 1013.7
20260503200050 34 117 0.0 0.0 0.00 0.00 0.00 100 1013.9
20260503194606 35 108 0.0 0.0 0.00 0.00 0.00 100 1014.0